Date String (YYYY-MM-DD hh:mm:ss) UTC,Instrument flags,Ambient pressure (hPa),Sample flow (lpm),Bypass flow (lpm),Sample temperature (°C),Ambient temperature (°C),ASC tube jacket temperature (°C),LED temperature (°C),Box temperature (°C),Sample RH (%),Span deviation,Mass concentration (μg/m³),Mass concentration (μg/m³),Mass concentration (μg/m³)
DateTimeUTC,F1_M11,P_M11,Q1_M11,Q2_M11,T1_M11,T2_M11,T3_M11,T4_M11,T5_M11,U1_M11,ZSPAN_M11,X2_M11,X0_M11,X1_M11
2022-08-29 02:00:00,,0823.8,4.99,0.00,29.4,26.9,00.0,38.2,31.1,21.4,0000.0,0003.63,0008.32,0002.87
2022-08-29 02:01:00,,0823.8,5.00,0.00,29.4,27.2,00.0,38.2,31.2,21.3,0000.0,0003.65,0008.17,0002.89
2022-08-29 02:02:00,,0823.8,5.00,0.00,29.4,27.5,00.0,38.2,31.2,21.3,0000.0,0003.66,0008.13,0002.92
2022-08-29 02:03:00,,0823.8,4.99,0.00,29.4,27.8,00.0,38.2,31.3,21.3,0000.0,0003.67,0008.20,0002.94
2022-08-29 02:04:00,,0823.9,5.01,0.00,29.4,28.0,00.0,38.2,31.3,21.3,0000.0,0003.65,0008.16,0002.95
2022-08-29 02:05:00,,0823.9,5.00,0.00,29.4,28.1,00.0,38.2,31.3,21.2,0000.0,0003.66,0008.22,0002.97
2022-08-29 02:06:00,,0824.0,5.00,0.00,29.5,28.3,00.0,38.2,31.4,21.1,0000.0,0003.71,0008.53,0002.98
2022-08-29 02:07:00,,0824.0,5.01,0.00,29.5,28.4,00.0,38.2,31.4,21.2,0000.0,0003.71,0008.31,0002.98
2022-08-29 02:08:00,,0824.0,5.00,0.00,29.5,28.5,00.0,38.2,31.4,21.1,0000.0,0003.69,0008.10,0002.97
2022-08-29 02:09:00,,0824.0,5.00,0.00,29.5,28.6,00.0,38.2,31.5,21.0,0000.0,0003.67,0008.04,0002.97
2022-08-29 02:10:00,,0824.0,5.00,0.00,29.6,28.6,00.0,38.3,31.5,20.9,0000.0,0003.57,0007.67,0002.94
2022-08-29 02:11:00,,0823.9,4.99,0.00,29.6,28.7,00.0,38.3,31.6,20.9,0000.0,0003.53,0007.57,0002.92
2022-08-29 02:12:00,,0824.0,5.00,0.00,29.7,28.8,00.0,38.3,31.6,20.8,0000.0,0003.51,0007.90,0002.91
2022-08-29 02:13:00,,0824.0,5.00,0.00,29.7,28.8,00.0,38.3,31.6,20.7,0000.0,0003.50,0008.01,0002.89
2022-08-29 02:14:00,,0824.0,5.00,0.00,29.7,28.0,00.0,38.3,31.6,20.7,0000.0,0003.48,0007.88,0002.86
2022-08-29 02:15:00,,0824.0,5.00,0.00,29.7,27.0,00.0,38.3,31.5,20.7,0000.0,0003.50,0007.94,0002.86
2022-08-29 02:16:00,,0824.0,5.00,0.00,29.6,26.9,00.0,38.3,31.4,20.8,0000.0,0003.50,0007.87,0002.85
2022-08-29 02:17:00,,0824.0,4.99,0.00,29.6,27.1,00.0,38.3,31.3,20.9,0000.0,0003.47,0007.62,0002.83
2022-08-29 02:18:00,,0824.0,5.01,0.00,29.5,27.4,00.0,38.2,31.3,20.7,0000.0,0003.45,0007.96,0002.82
2022-08-29 02:19:00,,0824.1,5.00,0.00,29.5,27.7,00.0,38.2,31.3,20.6,0000.0,0003.45,0008.49,0002.80
2022-08-29 02:20:00,,0824.0,5.01,0.00,29.5,27.9,00.0,38.2,31.4,20.7,0000.0,0003.48,0008.51,0002.80
2022-08-29 02:21:00,,0824.0,5.01,0.00,29.5,28.1,00.0,38.3,31.4,20.9,0000.0,0003.50,0008.48,0002.81
2022-08-29 02:22:00,,0824.0,5.00,0.00,29.6,28.2,00.0,38.3,31.4,20.6,0000.0,0003.53,0008.29,0002.82
2022-08-29 02:23:00,,0824.1,5.00,0.00,29.6,28.4,00.0,38.3,31.5,20.3,0000.0,0003.52,0007.96,0002.81
2022-08-29 02:24:00,,0824.1,5.00,0.00,29.6,28.5,00.0,38.3,31.5,20.0,0000.0,0003.54,0007.80,0002.81
2022-08-29 02:25:00,,0824.1,5.00,0.00,29.6,28.6,00.0,38.3,31.5,20.2,0000.0,0003.58,0007.90,0002.79
2022-08-29 02:26:00,,0824.1,5.00,0.00,29.7,28.6,00.0,38.3,31.6,19.6,0000.0,0003.55,0007.89,0002.77
2022-08-29 02:27:00,,0824.1,5.00,0.00,29.7,28.7,00.0,38.4,31.6,19.5,0000.0,0003.49,0007.96,0002.76
2022-08-29 02:28:00,,0824.1,5.00,0.00,29.7,28.8,00.0,38.4,31.7,19.3,0000.0,0003.43,0007.84,0002.74
2022-08-29 02:29:00,,0824.1,5.00,0.00,29.7,28.5,00.0,38.4,31.7,19.2,0000.0,0003.42,0007.62,0002.72
2022-08-29 02:30:00,,0824.1,4.99,0.00,29.7,27.3,00.0,38.4,31.5,19.2,0000.0,0003.42,0006.86,0002.71
2022-08-29 02:31:00,,0824.1,5.01,0.00,29.7,26.9,00.0,38.3,31.5,19.1,0000.0,0003.39,0007.03,0002.68
2022-08-29 02:32:00,,0824.1,5.00,0.00,29.6,27.0,00.0,38.3,31.3,19.3,0000.0,0003.43,0007.97,0002.67
2022-08-29 02:33:00,,0824.1,5.00,0.00,29.6,27.3,00.0,38.3,31.3,19.4,0000.0,0003.36,0007.83,0002.65
2022-08-29 02:34:00,,0824.0,5.00,0.00,29.6,27.6,00.0,38.3,31.3,19.5,0000.0,0003.37,0008.50,0002.63
2022-08-29 02:35:00,,0824.0,4.99,0.00,29.6,27.9,00.0,38.3,31.4,19.6,0000.0,0003.38,0008.79,0002.63
2022-08-29 02:36:00,,0824.0,5.00,0.00,29.6,28.0,00.0,38.3,31.4,19.3,0000.0,0003.36,0008.77,0002.65
2022-08-29 02:37:00,,0824.0,5.00,0.00,29.6,28.2,00.0,38.3,31.4,19.2,0000.0,0003.37,0009.07,0002.65
2022-08-29 02:38:00,,0824.0,5.00,0.00,29.6,28.3,00.0,38.3,31.5,18.7,0000.0,0003.36,0009.46,0002.64
2022-08-29 02:39:00,,0824.0,5.00,0.00,29.6,28.5,00.0,38.3,31.5,18.6,0000.0,0003.37,0009.63,0002.63
2022-08-29 02:40:00,,0824.0,5.00,0.00,29.6,28.6,00.0,38.4,31.6,18.4,0000.0,0003.38,0009.62,0002.65
2022-08-29 02:41:00,,0823.9,5.00,0.00,29.7,28.6,00.0,38.4,31.6,18.2,0000.0,0003.38,0009.63,0002.67
2022-08-29 02:42:00,,0824.0,5.01,0.00,29.7,28.7,00.0,38.4,31.6,18.2,0000.0,0003.38,0009.68,0002.69
2022-08-29 02:43:00,,0823.9,5.01,0.00,29.7,28.8,00.0,38.4,31.7,18.2,0000.0,0003.36,0008.79,0002.71
2022-08-29 02:44:00,,0824.0,5.01,0.00,29.8,28.8,00.0,38.4,31.7,18.2,0000.0,0003.37,0008.81,0002.74
2022-08-29 02:45:00,,0824.0,4.99,0.00,29.8,28.0,00.0,38.4,31.7,18.0,0000.0,0003.39,0008.35,0002.77
2022-08-29 02:46:00,,0824.0,5.01,0.00,29.7,26.5,00.0,38.4,31.5,18.0,0000.0,0003.43,0007.97,0002.79
2022-08-29 02:47:00,,0823.9,5.00,0.00,29.7,26.3,00.0,38.3,31.4,18.1,0000.0,0003.45,0007.93,0002.81
2022-08-29 02:48:00,,0823.9,4.99,0.00,29.6,26.5,00.0,38.3,31.2,18.3,0000.0,0003.44,0007.70,0002.83
2022-08-29 02:49:00,,0823.8,5.00,0.00,29.5,26.8,00.0,38.3,31.2,18.4,0000.0,0003.46,0007.07,0002.84
2022-08-29 02:50:00,,0823.7,5.00,0.00,29.5,27.1,00.0,38.2,31.2,18.3,0000.0,0003.49,0006.67,0002.86
2022-08-29 02:51:00,,0823.7,5.00,0.00,29.5,27.4,00.0,38.2,31.2,18.4,0000.0,0003.50,0006.64,0002.87
2022-08-29 02:52:00,,0823.7,5.01,0.00,29.5,27.7,00.0,38.2,31.3,18.3,0000.0,0003.52,0007.11,0002.87
2022-08-29 02:53:00,,0823.7,4.98,0.00,29.5,27.9,00.0,38.2,31.3,18.4,0000.0,0003.51,0006.92,0002.86
2022-08-29 02:54:00,,0823.8,4.99,0.00,29.5,28.1,00.0,38.2,31.3,18.4,0000.0,0003.51,0006.90,0002.84
2022-08-29 02:55:00,,0823.8,5.01,0.00,29.5,28.2,00.0,38.2,31.4,18.3,0000.0,0003.52,0006.96,0002.81
2022-08-29 02:56:00,,0823.7,5.00,0.00,29.5,28.3,00.0,38.2,31.4,18.3,0000.0,0003.51,0006.98,0002.80
2022-08-29 02:57:00,,0823.8,5.01,0.00,29.5,28.4,00.0,38.3,31.4,18.2,0000.0,0003.45,0007.29,0002.77
2022-08-29 02:58:00,,0823.8,5.00,0.00,29.5,28.5,00.0,38.3,31.4,18.1,0000.0,0003.41,0007.18,0002.74
2022-08-29 02:59:00,,0823.8,5.00,0.00,29.6,28.6,00.0,38.3,31.5,18.1,0000.0,0003.40,0007.05,0002.72
